CW1740 Weather Reports


time (UTC)temp
C
wind
direction
speed
KPH
gust
KPH
rain 1hr
cm
rain 24hr
cm
rain mn
cm
humidity
%
barometer
mb
20260504081537 11 360 0.0 4.8 0.00 0.00 0.00 81 1005.7
20260504081021 11 360 0.0 0.0 0.00 0.00 0.00 81 1005.7
20260504080521 11 360 0.0 0.0 0.00 0.00 0.00 80 1005.6
20260504050553 14 360 0.0 0.0 0.00 0.00 0.00 66 1007.3
20260504045550 15 360 0.0 0.0 0.00 0.00 0.00 66 1007.3
20260504045050 15 360 0.0 0.0 0.00 0.00 0.00 65 1007.3
20260504044550 15 360 0.0 0.0 0.00 0.00 0.00 65 1007.3
20260504044050 15 360 0.0 0.0 0.00 0.00 0.00 64 1007.4
20260504043550 15 360 0.0 0.0 0.00 0.00 0.00 64 1007.5
20260504043057 15 360 0.0 0.0 0.00 0.00 0.00 64 1007.5
20260504042549 15 360 0.0 0.0 0.00 0.00 0.00 63 1007.5
20260504042050 15 360 0.0 0.0 0.00 0.00 0.00 63 1007.5
20260504041549 15 360 0.0 3.2 0.00 0.00 0.00 63 1007.6
20260504041053 15 360 0.0 3.2 0.00 0.00 0.00 63 1007.5
20260504040549 16 360 0.0 3.2 0.00 0.00 0.00 63 1007.5
20260504040049 16 360 0.0 3.2 0.00 0.00 0.00 63 1007.5
20260504035548 16 360 0.0 1.6 0.00 0.00 0.00 63 1007.5
20260504035048 16 360 0.0 0.0 0.00 0.00 0.00 63 1007.6
20260504034549 16 360 0.0 1.6 0.00 0.00 0.00 62 1007.6
20260504034047 16 360 0.0 1.6 0.00 0.00 0.00 62 1007.7
20260504033550 16 360 0.0 3.2 0.00 0.00 0.00 62 1007.7
20260504033048 16 360 0.0 3.2 0.00 0.00 0.00 62 1007.7
20260504032548 16 360 0.0 3.2 0.00 0.00 0.00 62 1007.8
20260504032050 16 360 0.0 4.8 0.00 0.00 0.00 61 1007.7
20260504031550 16 360 0.0 4.8 0.00 0.00 0.00 61 1007.7
20260504031047 16 360 0.0 4.8 0.00 0.00 0.00 61 1007.8
20260504030548 16 360 0.0 9.7 0.00 0.00 0.00 61 1007.7
20260504030047 16 360 0.0 9.7 0.00 0.00 0.00 61 1007.8
20260504025547 16 360 0.0 4.8 0.00 0.00 0.00 61 1007.8
20260504025048 16 360 0.0 4.8 0.00 0.00 0.00 60 1007.7
20260504024549 16 360 0.0 4.8 0.00 0.00 0.00 60 1007.7
20260504024048 16 360 0.0 3.2 0.00 0.00 0.00 60 1007.7
20260504023546 16 360 0.0 1.6 0.00 0.00 0.00 60 1007.7
20260504023046 16 360 0.0 4.8 0.00 0.00 0.00 59 1007.7
20260504022546 17 360 0.0 4.8 0.00 0.00 0.00 59 1007.7
20260504022046 17 360 0.0 4.8 0.00 0.00 0.00 59 1007.7
20260504021546 17 360 0.0 4.8 0.00 0.00 0.00 59 1007.6
20260504021047 17 360 0.0 6.4 0.00 0.00 0.00 59 1007.6
20260504020548 17 360 0.0 6.4 0.00 0.00 0.00 58 1007.6
20260504020125 17 360 0.0 6.4 0.00 0.00 0.00 58 1007.6
20260504015544 17 360 0.0 6.4 0.00 0.00 0.00 58 1007.7
20260504015045 17 360 0.0 4.8 0.00 0.00 0.00 58 1007.7
20260504014558 17 360 0.0 4.8 0.00 0.00 0.00 57 1007.7
20260504014043 17 360 0.0 4.8 0.00 0.00 0.00 57 1007.6
20260504013543 17 360 0.0 4.8 0.00 0.00 0.00 56 1007.5
20260504013055 17 360 0.0 6.4 0.00 0.00 0.00 56 1007.6
20260504012543 17 360 0.0 6.4 0.00 0.00 0.00 56 1007.5
20260504012047 18 360 0.0 4.8 0.00 0.00 0.00 55 1007.5
20260504011546 18 360 0.0 4.8 0.00 0.00 0.00 55 1007.3
20260504011044 18 360 0.0 4.8 0.00 0.00 0.00 55 1007.4
20260504010544 18 360 0.0 6.4 0.00 0.00 0.00 54 1007.4
20260504010045 18 360 0.0 6.4 0.00 0.00 0.00 54 1007.3
20260504005542 18 360 0.0 6.4 0.00 0.00 0.00 54 1007.4
20260504005042 18 360 0.0 3.2 0.00 0.00 0.00 54 1007.3
20260504004613 18 360 0.0 4.8 0.00 0.00 0.00 53 1007.4
20260504004041 18 360 0.0 6.4 0.00 0.00 0.00 53 1007.3
20260504003541 19 360 0.0 6.4 0.00 0.00 0.00 53 1007.4
20260504003048 19 360 0.0 3.2 0.00 0.00 0.00 52 1007.3
20260504002541 19 360 0.0 4.8 0.00 0.00 0.00 52 1007.4
20260504002041 19 360 0.0 9.7 0.00 0.00 0.00 52 1007.4
20260504001612 19 360 0.0 9.7 0.00 0.00 0.00 51 1007.5
20260504001042 20 360 0.0 8.0 0.00 0.00 0.00 51 1007.5
20260504000540 20 360 1.6 8.0 0.00 0.00 0.00 50 1007.4
20260504000044 20 360 0.0 6.4 0.00 0.00 0.00 50 1007.4
20260503235539 20 360 0.0 6.4 0.00 0.00 0.00 50 1007.5
20260503235039 20 360 0.0 6.4 0.00 0.00 0.00 49 1007.5
20260503234639 20 360 0.0 8.0 0.00 0.00 0.00 49 1007.5
20260503234039 20 360 1.6 8.0 0.00 0.00 0.00 48 1007.6
20260503233538 20 360 0.0 8.0 0.00 0.00 0.00 49 1007.7
20260503233041 20 360 1.6 8.0 0.00 0.00 0.00 49 1007.7
20260503232537 20 360 1.6 6.4 0.00 0.00 0.00 49 1007.7
20260503232038 20 360 0.0 12.9 0.00 0.00 0.00 48 1007.7
20260503231538 20 360 3.2 12.9 0.00 0.00 0.00 47 1007.7
20260503231036 20 360 1.6 16.1 0.00 0.00 0.00 47 1007.7
20260503230536 20 360 3.2 16.1 0.00 0.00 0.00 47 1007.6
20260503230058 20 360 3.2 16.1 0.00 0.00 0.00 46 1007.8
20260503225535 20 360 3.2 17.7 0.00 0.00 0.00 46 1007.8
20260503225035 20 360 3.2 17.7 0.00 0.00 0.00 47 1007.8
20260503224535 20 360 1.6 16.1 0.00 0.00 0.00 46 1007.7
20260503224034 20 360 3.2 14.5 0.00 0.00 0.00 46 1007.8
20260503223534 20 360 3.2 17.7 0.00 0.00 0.00 46 1007.8
20260503223033 20 360 3.2 17.7 0.00 0.00 0.00 46 1007.9
20260503222534 20 360 4.8 17.7 0.00 0.00 0.00 45 1007.9
20260503222034 20 360 4.8 17.7 0.00 0.00 0.00 45 1007.9
20260503221533 20 360 4.8 17.7 0.00 0.00 0.00 44 1007.9
20260503221032 20 360 3.2 17.7 0.00 0.00 0.00 45 1008.1
20260503220531 20 360 3.2 14.5 0.00 0.00 0.00 45 1008.1
20260503220041 20 360 3.2 12.9 0.00 0.00 0.00 44 1008.1
20260503215529 20 360 3.2 12.9 0.00 0.00 0.00 45 1008.1
20260503215026 20 360 3.2 17.7 0.00 0.00 0.00 45 1008.2
20260503214527 20 360 1.6 17.7 0.00 0.00 0.00 45 1008.2
20260503214030 20 360 4.8 19.3 0.00 0.00 0.00 44 1008.2
20260503213526 20 360 6.4 19.3 0.00 0.00 0.00 44 1008.2
20260503213026 20 360 3.2 27.4 0.00 0.00 0.00 45 1008.3
20260503212525 19 360 4.8 27.4 0.00 0.00 0.00 45 1008.2
20260503212026 19 360 4.8 19.3 0.00 0.00 0.00 44 1008.2
20260503211525 19 360 3.2 17.7 0.00 0.00 0.00 44 1008.2
20260503211025 19 360 4.8 17.7 0.00 0.00 0.00 44 1008.3
20260503210525 19 360 4.8 17.7 0.00 0.00 0.00 45 1008.3
20260503210025 19 360 3.2 19.3 0.00 0.00 0.00 44 1008.2
20260503205524 19 360 4.8 19.3 0.00 0.00 0.00 44 1008.3
20260503205023 19 360 4.8 19.3 0.00 0.00 0.00 44 1008.4
20260503204523 19 360 4.8 32.2 0.00 0.00 0.00 44 1008.3
20260503204022 19 360 8.0 22.5 0.00 0.00 0.00 43 1008.3
20260503203522 20 360 4.8 22.5 0.00 0.00 0.00 43 1008.4
20260503203041 20 360 6.4 22.5 0.00 0.00 0.00 44 1008.5
20260503202520 19 360 4.8 19.3 0.00 0.00 0.00 43 1008.8
20260503202019 19 360 4.8 19.3 0.00 0.00 0.00 42 1008.9
20260503201519 19 360 4.8 25.7 0.00 0.00 0.00 42 1008.8
20260503201019 20 360 4.8 30.6 0.00 0.00 0.00 42 1008.9
20260503200519 20 360 11.3 30.6 0.00 0.00 0.00 41 1008.8
20260503200018 19 360 4.8 30.6 0.00 0.00 0.00 42 1008.9
20260503195517 19 360 6.4 19.3 0.00 0.00 0.00 43 1009.1
20260503195016 19 360 6.4 20.9 0.00 0.00 0.00 43 1009.3
20260503194533 19 360 6.4 24.1 0.00 0.00 0.00 42 1009.2
20260503194016 19 360 4.8 20.9 0.00 0.00 0.00 43 1009.1
20260503193516 19 360 8.0 20.9 0.00 0.00 0.00 42 1009.2
20260503193015 19 360 4.8 19.3 0.00 0.00 0.00 43 1009.3
20260503192514 19 360 6.4 19.3 0.00 0.00 0.00 42 1009.4
20260503192013 19 360 6.4 19.3 0.00 0.00 0.00 42 1009.4
20260503191512 18 360 3.2 30.6 0.00 0.00 0.00 46 1009.2
20260503191012 18 360 4.8 30.6 0.00 0.00 0.00 44 1009.5
20260503190512 18 360 6.4 19.3 0.00 0.00 0.00 43 1009.6
20260503190011 18 360 4.8 19.3 0.00 0.00 0.00 44 1009.4
20260503185513 18 360 6.4 22.5 0.00 0.00 0.00 44 1009.7
20260503185007 18 360 8.0 22.5 0.00 0.00 0.00 43 1009.7
20260503184507 17 360 6.4 20.9 0.00 0.00 0.00 45 1010.0
20260503184007 17 360 6.4 16.1 0.00 0.00 0.00 44 1010.0
20260503183506 17 360 6.4 29.0 0.00 0.00 0.00 45 1010.0
20260503183005 17 360 6.4 29.0 0.00 0.00 0.00 46 1010.1
20260503182505 17 360 6.4 22.5 0.00 0.00 0.00 49 1010.3
20260503182003 17 360 8.0 22.5 0.00 0.00 0.00 46 1010.3
20260503181504 17 360 6.4 19.3 0.00 0.00 0.00 48 1010.4
20260503181004 17 360 6.4 22.5 0.00 0.00 0.00 48 1010.5
20260503180501 17 360 6.4 20.9 0.00 0.00 0.00 50 1010.5
20260503180100 17 360 4.8 20.9 0.00 0.00 0.00 50 1010.7
20260503175558 16 360 3.2 25.7 0.00 0.00 0.00 51 1010.9
20260503175056 16 360 8.0 29.0 0.00 0.00 0.00 49 1011.2
20260503174555 16 360 6.4 29.0 0.00 0.00 0.00 50 1011.3
20260503174055 16 360 3.2 20.9 0.00 0.00 0.00 50 1011.6
20260503173554 16 360 4.8 20.9 0.00 0.00 0.00 48 1011.8
20260503173054 16 360 6.4 14.5 0.00 0.00 0.00 49 1011.8
20260503172553 16 360 4.8 19.3 0.00 0.00 0.00 49 1011.6
20260503172051 16 360 6.4 22.5 0.00 0.00 0.00 49 1012.3
20260503171550 16 360 3.2 22.5 0.00 0.00 0.00 50 1012.4
20260503171049 16 360 3.2 12.9 0.00 0.00 0.00 52 1012.7
20260503170547 15 360 3.2 17.7 0.00 0.00 0.00 53 1013.0
20260503150526 13 360 3.2 14.5 0.00 0.00 0.00 61 1014.9
20260503131004 9 360 1.6 6.4 0.00 0.00 0.00 72 1016.3
20260503130502 8 360 0.0 8.0 0.00 0.00 0.00 73 1016.3
20260503110542 7 360 0.0 6.4 0.00 0.00 0.00 74 1016.0